SCP
1 1 1 1 1 0 0 0 0 0 0 0 0 0 0 0 0 0 0 1 1 1 1 1 0 0 0 0 0 0 1 1 1 1 1 0 0 0 0 0 0 0 0
1 1 1 1 1 1 1 0 0 0 0 0 0 0 0 0 0 0 0 1 1 1 1 1 0 0 0 0 0 0 0 0 1 1 1 0 0 0 0 0 0 0 0
1 1 1 1 1 1 1 1 0 0 0 0 0 0 0 0 0 0 0 1 1 1 1 1 1 0 0 0 0 0 0 0 0 0 0 0 0 0 0 0 0 0 0
2 2 2 1 1 1 1 1 1 1 0 0 0 0 0 1 1 0 0 0 1 1 1 1 1 1 0 0 0 0 0 0 0 0 0 0 0 0 0 0 0 0 0
2 2 2 2 2 1 1 1 1 1 1 0 0 0 0 1 1 1 1 0 1 1 1 1 1 1 1 0 0 0 0 0 0 0 0 1 0 0 0 0 0 0 0
3 3 3 2 2 2 1 1 1 1 1 1 0 0 0 1 1 1 1 0 1 1 0 0 1 1 1 1 0 0 0 0 0 0 0 1 1 0 0 0 0 0 0
3 3 3 2 2 2 2 1 1 1 1 1 0 0 0 0 1 1 1 0 0 0 0 0 0 0 0 0 0 0 0 0 0 0 0 0 1 0 0 0 0 0 0
3 3 3 3 3 2 2 1 1 1 1 1 1 0 0 0 1 1 1 1 0 0 0 0 0 0 0 0 0 0 0 0 0 0 0 0 0 0 0 0 0 0 0
2 2 3 3 3 2 2 1 1 1 1 1 1 0 0 0 0 0 1 1 1 0 0 0 0 0 0 0 0 0 0 0 0 0 0 0 0 0 0 0 0 0 0
3 3 3 3 3 2 2 1 1 1 1 1 1 0 0 0 0 0 0 1 1 1 0 0 0 0 0 0 0 0 0 0 0 0 0 0 0 0 0 0 0 0 0
3 3 2 3 3 2 2 1 1 1 1 1 1 0 0 0 0 0 0 0 1 1 1 0 0 0 0 0 0 0 0 0 0 0 0 0 0 0 0 0 0 0 0
3 2 2 2 2 2 1 1 1 1 1 1 0 0 0 0 0 0 0 0 0 0 1 1 1 0 0 0 0 0 0 0 0 0 0 0 0 0 0 0 0 0 0
2 2 1 1 1 1 1 1 1 1 1 0 0 0 0 0 0 0 0 0 0 0 1 1 1 0 0 0 0 0 0 0 0 0 0 0 0 0 0 0 0 0 0
1 1 1 1 1 1 1 0 0 0 0 0 0 0 0 0 0 0 0 0 0 0 1 1 1 0 0 0 0 0 0 0 0 0 0 0 0 0 0 0 0 -0 -0
1 0 0 0 0 0 0 0 0 0 0 0 0 0 0 0 0 0 0 0 0 0 0 0 1 0 0 0 0 0 0 0 -0 0 0 0 0 0 0 -0 -0 -0 -0
0 0 0 0 0 0 0 0 0 0 0 0 0 0 0 0 0 0 0 1 0 0 0 0 1 0 0 0 0 0 0 0 0 -0 -0 -0 -0 -0 -0 -0 -0 -0 -0
0 0 0 0 0 0 0 0 0 0 0 0 0 0 0 0 0 0 0 0 0 0 0 0 0 0 0 0 0 0 0 0 0 0 -0 -0 -0 -0 -0 -0 -0 -0 -0
0 0 0 0 0 0 0 0 0 0 0 0 0 0 0 0 0 0 0 0 0 0 0 0 0 0 0 0 0 0 0 0 0 0 0 -0 -0 -0 -0 -0 0 0 0
0 0 0 0 0 0 0 0 0 0 0 0 0 0 0 0 0 0 0 0 0 0 0 0 0 0 0 0 0 0 0 0 0 0 0 0 0 0 -0 0 0 0 0
0 0 0 0 0 0 0 0 0 0 0 0 0 0 0 0 0 0 0 0 0 0 0 0 0 0 0 0 0 0 0 0 0 0 0 0 0 0 0 0 0 0 0
0 0 0 0 0 0 0 0 0 0 0 0 0 0 0 0 0 0 0 0 0 0 0 0 0 0 0 0 0 0 0 0 0 0 0 0 0 0 0 0 0 0 0
0 0 0 0 0 0 0 0 0 0 0 0 0 0 0 0 0 0 0 0 0 0 0 0 0 0 0 0 0 0 0 0 0 0 0 0 0 0 0 0 0 0 0
0 0 0 0 0 0 0 0 0 0 0 0 0 0 0 0 0 0 0 0 0 0 0 0 0 0 0 0 0 0 0 0 0 0 0 0 0 0 0 0 0 0 0
0 0 0 0 0 0 0 0 0 0 0 0 0 0 0 0 0 0 0 0 0 0 0 0 0 0 0 0 0 0 0 0 0 0 0 0 0 0 0 0 0 0 0
0 0 0 0 0 0 0 0 0 0 0 0 0 0 0 0 0 0 0 0 0 0 0 0 0 0 0 0 0 0 0 0 0 0 0 0 0 0 0 0 0 0 0
0 0 0 0 0 0 0 0 0 0 0 0 0 0 0 0 0 0 0 0 0 0 0 0 0 0 0 0 0 0 0 0 0 0 0 0 0 0 0 0 0 0 0
Wind_Speed
3 1 0 0 2 3 4 3 3 4 4 4 4 5 5 5 5 3 3 10 12 13 13 12 12 13 13 13 14 15 16 17 18 18 19 19 19 18 17 16 15 13 12
1 1 1 1 3 2 1 2 4 3 3 3 4 5 5 5 5 4 4 7 14 14 14 13 13 13 14 14 14 14 15 16 17 18 20 20 20 20 19 18 16 15 13
2 2 1 2 2 2 2 2 4 3 4 5 5 6 5 5 4 5 5 4 5 12 15 14 14 13 14 14 15 15 14 14 15 17 20 21 21 21 21 20 18 16 14
2 2 1 2 1 2 2 2 3 3 4 4 4 5 4 4 6 6 5 5 5 4 9 16 15 14 15 14 14 15 15 14 13 15 19 22 23 22 22 21 19 17 15
4 3 2 2 2 1 2 4 2 3 3 4 5 6 5 5 6 7 7 6 4 3 4 8 15 15 16 15 14 14 15 14 13 14 17 22 24 23 23 22 21 19 16
3 2 2 3 2 1 1 2 3 3 3 3 6 7 5 5 5 6 6 5 5 6 5 3 5 9 14 14 15 14 14 14 13 14 16 21 25 24 24 24 22 20 18
3 3 3 3 3 2 2 2 2 3 3 3 3 5 7 8 6 4 4 4 3 4 4 5 4 2 3 11 14 15 14 13 13 13 14 18 23 25 26 26 25 22 19
4 5 4 3 3 2 3 2 2 2 3 3 2 3 4 5 2 4 5 5 5 3 4 5 5 5 4 3 5 12 13 12 12 12 13 16 21 24 27 28 27 24 21
7 6 5 4 4 4 3 3 3 4 4 3 3 3 3 3 3 4 5 5 4 3 4 4 4 5 4 2 1 3 6 8 10 12 12 14 20 24 27 28 28 25 22
8 7 6 6 5 4 4 4 4 3 4 4 3 3 5 4 3 4 3 3 5 5 5 3 3 2 0 1 2 3 4 6 8 9 10 12 18 23 27 29 28 25 22
6 7 7 6 5 4 4 4 2 2 2 3 4 4 5 4 5 4 4 3 3 4 5 5 3 1 2 3 3 5 5 3 2 4 6 10 17 23 27 28 28 26 23
3 5 5 5 4 4 4 3 2 2 3 4 5 5 5 4 4 4 5 5 4 4 4 3 1 2 3 4 6 6 5 4 4 5 9 14 21 26 28 27 27 25 23
2 3 3 2 2 1 1 1 0 2 3 5 5 5 5 6 5 5 5 5 4 3 1 1 1 3 4 4 4 5 7 8 9 11 15 19 23 25 25 25 25 24 23
3 4 4 4 3 3 3 2 1 2 4 5 7 7 5 6 5 5 5 5 4 3 1 1 1 3 4 5 4 5 6 9 12 13 15 17 19 20 20 21 21 20 18
3 4 4 3 4 4 3 2 1 3 4 4 6 6 6 5 5 5 4 3 3 3 3 2 1 3 5 5 5 5 6 8 11 12 13 15 15 16 15 15 15 14 13
3 3 2 2 2 1 1 2 2 4 4 4 4 5 5 4 4 4 3 3 3 3 3 1 1 3 5 6 6 6 7 10 10 11 11 12 13 13 12 12 11 11 11
3 2 1 1 1 2 2 2 3 5 4 4 4 4 4 5 4 4 4 3 3 3 4 3 1 2 4 6 5 6 8 6 6 10 11 12 12 12 12 12 12 12 11
4 4 3 3 2 2 2 3 4 4 3 3 3 4 5 5 6 4 4 4 4 4 4 5 3 3 5 6 7 6 7 8 7 12 14 13 14 14 14 14 14 13 12
4 5 4 4 4 4 4 4 3 4 4 4 4 5 6 6 6 6 5 4 4 5 4 4 4 3 4 5 6 5 6 4 7 11 16 15 15 15 14 14 14 14 13
3 4 4 4 5 6 8 8 6 4 4 4 5 5 6 6 6 7 6 6 5 5 4 4 3 3 4 5 5 4 3 2 2 2 6 10 13 15 15 14 14 14 14
5 4 4 5 6 6 8 9 7 6 5 5 5 4 5 5 4 4 5 6 7 5 5 3 3 3 3 5 5 4 3 1 0 0 1 3 5 6 9 13 15 15 14
3 3 4 6 7 7 9 11 10 5 5 5 5 4 4 6 6 5 3 3 6 6 6 4 2 1 1 2 3 3 3 2 1 1 1 1 1 3 4 4 8 11 13
4 4 4 5 6 6 10 12 14 5 5 5 5 6 7 8 8 7 5 1 3 8 8 6 7 6 4 3 2 3 3 3 2 1 1 1 1 1 1 3 3 2 3
4 4 4 5 5 6 9 12 14 3 5 6 6 6 6 7 10 9 5 5 5 6 7 6 5 5 5 5 3 2 2 2 2 1 2 1 1 1 1 1 1 1 2
4 4 4 5 5 5 10 11 12 2 3 5 6 7 7 7 12 14 8 7 6 3 4 6 5 4 4 4 3 2 2 1 1 2 2 1 0 1 1 2 2 4 4
2 3 5 5 6 6 10 13 13 4 2 2 4 5 10 9 11 13 7 7 7 7 8 3 1 2 2 2 3 3 2 1 0 1 2 1 1 1 2 3 4 4 4
Wind_Direction
189 190 119 117 247 210 206 240 251 244 243 251 264 258 245 251 259 263 182 190 202 213 227 240 246 251 254 253 250 247 245 241 231 220 213 208 203 197 194 195 194 188 184
185 139 166 195 284 287 224 219 261 255 263 264 259 255 240 249 247 243 235 216 216 219 226 235 243 248 255 260 260 256 250 245 237 223 214 208 204 198 193 192 191 188 183
206 174 206 214 252 295 311 282 288 280 264 261 253 249 235 232 248 248 248 249 232 221 223 230 237 241 248 257 263 264 260 251 241 228 215 207 202 197 192 189 188 185 180
195 165 209 233 244 263 272 270 254 270 272 273 270 258 236 208 226 239 239 231 230 233 216 226 232 237 244 252 260 264 263 256 244 233 219 207 202 196 190 186 183 179 178
181 166 196 239 255 259 266 277 276 241 267 272 273 256 238 222 214 228 229 233 227 217 228 224 218 231 243 251 256 260 263 261 252 241 225 210 202 196 188 183 178 174 175
167 161 195 230 245 237 233 263 289 274 276 285 290 298 273 240 213 218 221 231 214 208 223 220 202 232 236 243 249 254 258 259 256 247 231 214 203 194 186 179 172 170 175
190 196 218 212 217 227 228 241 268 286 270 264 286 295 290 261 220 205 212 236 228 214 215 215 214 226 227 240 241 245 250 253 254 250 236 216 203 192 183 175 168 168 174
226 233 225 220 217 228 244 243 237 249 267 259 249 287 290 298 284 226 201 200 217 222 238 236 197 206 223 239 234 234 241 252 257 254 241 217 199 188 180 172 166 167 173
232 237 239 232 226 223 229 235 236 239 254 265 238 239 267 280 294 261 216 206 181 204 242 244 218 213 214 232 264 237 249 258 259 257 243 217 194 181 177 169 164 166 172
236 231 228 229 229 228 227 236 236 230 243 262 272 242 239 257 273 303 281 232 190 208 228 250 268 262 133 57 15 358 322 280 261 251 238 213 187 176 169 162 161 165 171
236 237 230 230 228 226 226 229 246 246 249 258 264 269 268 256 242 248 273 282 250 227 210 216 221 184 72 51 33 22 344 314 259 226 206 186 171 163 157 158 161 166 173
256 251 248 241 234 224 222 214 220 260 265 273 272 262 258 252 247 239 252 267 263 251 208 188 169 109 82 62 50 32 38 62 88 118 135 143 147 150 153 158 163 169 178
338 326 302 286 264 247 226 157 80 305 291 285 278 270 263 257 256 258 258 268 282 286 267 121 129 101 90 84 75 64 71 87 96 105 117 129 138 146 153 159 166 175 184
24 27 28 21 25 32 40 45 23 300 285 280 280 276 269 266 262 258 260 273 285 282 278 245 114 106 103 99 105 95 93 99 105 110 119 128 137 146 155 165 174 181 190
30 38 40 33 31 29 19 6 318 282 276 271 274 279 269 267 266 268 270 272 265 274 269 233 165 121 118 113 143 115 117 117 118 121 129 137 145 155 165 175 184 190 198
35 36 31 17 5 354 320 307 298 281 271 267 267 273 282 286 294 292 287 278 261 250 263 259 154 148 136 136 153 130 129 138 137 142 147 153 160 169 178 188 196 202 209
12 16 3 312 289 276 277 278 274 272 272 278 292 306 317 316 314 316 311 291 269 243 245 259 203 152 138 140 146 141 144 158 162 168 170 174 179 184 191 199 207 212 218
9 7 349 331 315 306 287 280 288 303 308 321 335 344 342 345 349 337 322 304 289 263 243 252 226 180 173 156 161 165 160 178 175 187 192 195 197 199 202 207 213 218 223
19 11 359 356 353 353 354 343 324 322 336 -0 15 18 17 15 7 351 336 334 313 297 266 251 239 194 179 170 165 181 180 185 193 187 198 207 211 213 213 214 218 221 226
26 13 3 5 8 30 21 7 357 8 20 35 39 39 36 29 12 350 356 356 338 322 297 264 245 205 186 179 167 178 182 188 229 183 194 207 214 219 224 224 226 227 229
33 20 15 26 29 49 23 5 354 34 41 45 42 53 62 40 22 4 9 358 352 345 332 299 257 216 184 170 182 173 171 165 308 44 171 211 202 211 221 231 233 233 232
33 28 39 50 41 37 10 11 9 24 43 39 31 28 83 43 8 356 341 9 15 7 350 342 326 303 166 156 152 148 149 157 210 38 52 304 198 212 216 206 215 220 224
24 27 48 73 72 36 13 10 5 6 48 42 37 32 36 32 13 350 339 295 13 22 22 23 37 30 40 38 115 133 140 151 167 126 74 304 325 292 72 83 111 176 223
17 16 43 71 79 49 18 8 352 10 65 57 43 37 48 30 10 354 9 45 61 38 29 41 46 42 41 29 43 97 128 128 123 128 126 228 276 254 115 108 158 199 238
15 10 41 59 66 46 19 10 356 327 100 92 76 48 39 33 10 8 18 23 30 39 63 78 78 85 81 64 43 69 95 137 192 174 160 185 229 252 185 169 194 230 240
17 31 47 44 47 44 21 17 5 2 37 104 116 92 55 34 17 15 15 17 11 348 341 331 167 190 163 114 67 47 48 46 124 132 152 182 194 193 228 183 179 199 223